This is the latest recevied weather packets stored in our database for station/object JH7UAX-10. If no packets are shown the sender has not sent any weather packets the latest 10 day(s).
| Time | Temp. | Humidity | Pressure | Rain* | Wind** | Luminosity | Snow |
|---|---|---|---|---|---|---|---|
| 1778015279 | 11.11° C | 64% | 1031.6 hPa | 0 mm | - | - | - |
| 1778014805 | 10.56° C | 68% | 1031.7 hPa | 0 mm | - | - | - |
| 1778014378 | 9.44° C | 72% | 1031.3 hPa | 0 mm | - | - | - |
| 1778013479 | 9.44° C | 69% | 1031.2 hPa | 0 mm | - | - | - |
| 1778013004 | 9.44° C | 71% | 1031.3 hPa | 0 mm | - | - | - |
| 1778012580 | 8.89° C | 72% | 1031.2 hPa | 0 mm | - | - | - |
| 1778012105 | 8.33° C | 73% | 1031 hPa | 0 mm | - | - | - |
| 1778011678 | 8.33° C | 73% | 1031.1 hPa | 0 mm | - | - | - |
| 1778011206 | 8.33° C | 73% | 1031 hPa | 0 mm | - | - | - |
| 1778010778 | 8.33° C | 73% | 1031 hPa | 0 mm | - | - | - |
| 1778010306 | 8.33° C | 72% | 1030.9 hPa | 0 mm | - | - | - |
| 1778009878 | 7.78° C | 74% | 1030.8 hPa | 0 mm | - | - | - |
| 1778008978 | 7.78° C | 75% | 1030.6 hPa | 0 mm | - | - | - |
| 1778008506 | 7.78° C | 72% | 1030.6 hPa | 0 mm | - | - | - |
| 1778008080 | 7.22° C | 76% | 1030.6 hPa | 0 mm | - | - | - |
| 1778007180 | 7.22° C | 76% | 1030.5 hPa | 0 mm | - | - | - |
| 1778006279 | 7.22° C | 77% | 1030.5 hPa | 0 mm | - | - | - |
| 1778005379 | 7.22° C | 77% | 1030.4 hPa | 0 mm | - | - | - |
| 1778004479 | 7.22° C | 75% | 1030.4 hPa | 0 mm | - | - | - |
| 1778003579 | 7.78° C | 72% | 1030.4 hPa | 0 mm | - | - | - |
| 1778003106 | 8.33° C | 71% | 1030.5 hPa | 0 mm | - | - | - |
| 1778002678 | 8.33° C | 69% | 1030.4 hPa | 0 mm | - | - | - |
| 1778002206 | 8.33° C | 68% | 1030.3 hPa | 0 mm | - | - | - |
| 1778001778 | 8.33° C | 69% | 1030.4 hPa | 0 mm | - | - | - |
| 1778001306 | 7.78° C | 73% | 1030.4 hPa | 0 mm | - | - | - |
* Rain latest hour (hover to see other rain measurements)
** Current wind speed in m/s (hover to see current wind gust speed)